Vertical_Velocity
-4 -4 -6 -7 -6 -4 -2 -6 -6 -4 -1 -4 -4 -2 2 2 2 1 1 1 0 -1 -2 -2 -2 -1 -1 -1 -0 -0 -0 -1 -1 -1 -1 -1 -1 -1 -1 -0 -1 -1 -1 -1 -1 -0 -0 -0 -0 -0 0 -0 -0 -1 -1 -1 -1 -0 -0 -0 -0 -0 -0 -1 -1 -0 -0 -0 0 0 0 1 1 1 1 -1 -1 -1 0 2 3 4 5 4 4 4
-5 -4 -5 -8 -7 -4 -1 -5 -5 -4 -2 -4 -4 -3 -1 1 1 1 1 1 1 -0 -1 -1 -2 -1 -1 -0 0 1 1 0 -0 -1 -1 -1 -1 -1 -1 -1 -2 -2 -2 -1 -1 -0 -0 -0 -1 -1 -0 -1 -1 -1 -1 -0 -0 0 0 0 0 0 -0 -0 -0 -0 0 1 1 0 0 1 1 2 1 1 0 0 1 2 2 2 3 3 2 2
-4 -2 -3 -8 -8 -5 -2 -4 -5 -4 -3 -4 -4 -4 -3 -1 -1 -0 -0 0 0 -0 -0 -1 -1 -1 -1 -0 0 1 1 0 -0 -0 -1 -1 -1 -1 -1 -2 -2 -3 -3 -2 -1 -1 -0 -0 -1 -1 -1 -2 -2 -1 -1 -0 0 1 2 1 1 1 0 -0 0 1 1 2 2 2 1 1 1 2 2 2 1 1 1 1 0 -0 -0 0 0 0
-6 -2 -2 -7 -7 -6 -4 -4 -3 -3 -3 -3 -3 -2 -2 -1 -1 -1 -1 -1 -0 -0 -0 -0 -1 -1 -1 -1 -0 1 1 0 -0 -1 -1 -1 -1 -1 -1 -2 -3 -3 -3 -2 -2 -1 -0 -0 -0 -1 -1 -2 -2 -1 -0 0 1 2 2 2 2 1 1 1 1 2 3 4 4 3 3 2 2 2 3 3 2 1 0 0 -0 -1 -1 -1 -1 -0
-7 -4 -3 -6 -6 -6 -6 -4 -2 -2 -2 -2 -2 -1 1 1 -0 -1 -2 -1 -1 -1 -0 -0 -0 -0 -1 -1 -0 0 1 0 -0 -0 -1 -1 -1 -1 -2 -2 -3 -3 -3 -2 -2 -1 -1 -1 -1 -1 -1 -1 -1 -0 0 1 1 1 1 2 2 2 1 1 1 1 2 3 3 3 3 3 3 3 4 3 2 2 1 -0 -0 -0 -1 -1 -1 0
-8 -5 -4 -4 -4 -5 -5 -3 -2 -2 -3 -4 -2 -0 2 2 1 -1 -2 -2 -2 -1 -1 -0 0 1 1 0 0 0 0 1 0 -0 -0 -1 -1 -2 -2 -2 -3 -3 -2 -2 -1 -1 -1 -1 -2 -2 -2 -1 -1 -0 0 0 -0 -0 -0 1 1 0 -1 -1 -2 -2 -1 -0 0 1 1 2 2 3 3 3 2 2 1 0 -0 -1 -1 -1 -0 1
-9 -7 -5 -4 -4 -4 -4 -1 -0 -1 -3 -5 -5 -2 1 2 2 0 -1 -2 -2 -2 -2 -1 -0 1 2 2 1 1 0 0 0 0 0 -0 -1 -2 -3 -3 -2 -2 -2 -2 -1 -1 -1 -2 -2 -3 -3 -2 -1 -1 -1 -2 -2 -2 -1 -0 -1 -2 -3 -4 -4 -4 -4 -3 -2 -1 1 2 2 2 1 1 1 1 1 0 -0 -1 -1 -1 -1 0
-8 -8 -6 -4 -4 -4 -4 -1 1 2 -1 -5 -6 -5 -2 -0 0 1 -0 -0 -0 -1 -2 -2 -1 1 4 4 3 1 -0 -1 -1 -1 -0 -0 -1 -2 -2 -2 -2 -2 -1 -1 -1 -2 -2 -2 -3 -3 -3 -3 -2 -2 -2 -3 -3 -2 -2 -3 -4 -4 -3 -2 -2 -3 -3 -3 -2 0 2 2 1 -0 -2 -1 -0 0 1 1 0 -0 -1 -1 -1 -1
-6 -6 -7 -5 -4 -3 -5 -4 -1 2 2 -2 -5 -5 -5 -4 -4 -3 -1 1 2 2 0 -2 -2 -1 3 5 4 2 -1 -1 -1 -1 -1 -1 -2 -2 -2 -2 -2 -1 -1 -1 -1 -2 -2 -3 -3 -4 -4 -4 -3 -3 -3 -2 -1 -1 -2 -4 -4 -3 -1 -0 -0 -0 -1 -0 0 2 3 1 -1 -2 -3 -1 0 1 2 2 1 0 -0 -1 -2 -2
-5 -4 -5 -5 -4 -2 -2 -3 -3 -1 1 -0 -2 -3 -3 -4 -5 -6 -5 -1 2 5 4 1 -1 -2 -0 3 5 4 1 -1 -1 -0 -0 -1 -2 -3 -3 -3 -2 -2 -1 -1 -1 -1 -1 -2 -3 -4 -4 -4 -4 -3 -2 -1 -1 -2 -3 -3 -2 -0 1 1 1 0 0 1 2 2 2 -0 -2 -4 -3 -0 2 3 3 2 1 1 -0 -1 -2 -3
-5 -4 -4 -4 -4 -3 -1 -1 -2 -1 -0 -0 -1 -2 -2 -2 -4 -6 -8 -6 -1 4 6 4 2 1 -0 -0 1 2 2 -0 -1 -0 1 0 -0 -1 -3 -3 -3 -2 -2 -1 -1 -1 -0 -1 -2 -3 -4 -3 -3 -2 -1 -1 -1 -2 -3 -3 -1 0 2 2 2 1 1 2 2 1 -0 -2 -4 -4 -2 0 2 3 3 2 2 1 0 -1 -2 -2
-4 -4 -3 -4 -3 -3 -2 -2 -2 -1 -0 -0 -1 -3 -4 -3 -2 -4 -6 -7 -4 -0 2 3 4 5 5 1 -2 -2 -1 -1 -1 -1 -0 1 1 0 -1 -2 -2 -2 -2 -2 -1 -0 0 -1 -2 -2 -3 -2 -2 -1 -0 -0 -1 -2 -2 -2 -2 -1 1 1 2 2 2 2 1 -1 -2 -4 -5 -4 -2 0 1 2 2 2 2 2 1 0 -0 -1
-4 -3 -2 -2 -2 -2 -3 -4 -4 -4 -2 -1 -2 -3 -5 -4 -3 -3 -4 -5 -4 -2 -1 -1 1 4 8 5 1 -3 -5 -4 -3 -2 -1 0 1 0 -1 -2 -2 -1 -1 -1 -1 -0 0 -1 -2 -3 -2 -2 -1 -1 -0 -1 -1 -1 -1 -2 -2 -2 -1 0 1 2 2 0 -1 -3 -4 -5 -5 -4 -2 -0 1 1 2 2 2 2 2 1 0 -0
-5 -4 -3 -2 -2 -1 -2 -3 -4 -4 -3 -2 -2 -4 -5 -5 -3 -3 -4 -4 -3 -1 -0 -2 -1 2 6 6 3 -1 -5 -6 -5 -4 -1 1 1 0 -1 -3 -3 -2 -1 -1 -0 -0 0 -1 -2 -3 -2 -1 -1 -1 -1 -1 -1 -1 -1 -2 -2 -2 -2 -1 1 2 1 -1 -3 -4 -5 -6 -5 -4 -1 -0 -0 0 1 1 2 1 1 1 1 -0
-5 -4 -4 -4 -2 -1 -0 -1 -3 -4 -4 -2 -3 -4 -5 -5 -4 -2 -3 -4 -4 -2 -1 -2 -1 2 8 8 5 -0 -5 -7 -6 -5 -2 1 2 1 -2 -4 -4 -2 -0 -0 -0 -0 -0 -1 -2 -2 -1 -1 -1 -1 -1 -2 -2 -2 -1 -1 -2 -2 -2 -0 1 1 0 -1 -3 -4 -5 -5 -4 -3 -1 -0 1 1 1 1 1 1 1 1 0 -0
-4 -3 -4 -4 -4 -2 0 1 -1 -3 -4 -4 -3 -3 -4 -5 -4 -3 -2 -3 -4 -3 -2 -3 -3 -0 6 10 9 3 -4 -8 -8 -6 -2 2 2 1 -3 -5 -4 -2 0 0 -0 -1 -1 -1 -1 -1 -0 0 -0 -0 -1 -1 -2 -1 -1 -1 -1 -1 -1 0 0 0 -1 -2 -3 -5 -6 -6 -5 -3 -1 -0 0 1 1 1 1 1 1 1 1 0
-3 -2 -3 -4 -4 -3 -1 1 1 -1 -3 -4 -4 -3 -2 -2 -2 -2 -2 -3 -3 -4 -3 -3 -4 -3 -1 6 8 6 -2 -8 -9 -6 -1 2 2 0 -3 -5 -4 -2 1 1 -0 -1 -2 -1 -0 0 1 1 0 0 -0 -1 -1 -1 -0 0 0 1 1 1 0 -0 -1 -3 -5 -7 -8 -8 -6 -5 -3 -3 -3 -2 -1 -0 0 1 2 2 2 1
-3 -1 -1 -4 -5 -4 -2 -0 -0 -2 -3 -4 -5 -4 -2 -0 0 -0 -1 -2 -2 -3 -4 -3 -3 -3 -3 0 3 4 -1 -6 -8 -6 -1 2 2 -0 -4 -4 -3 -1 0 0 -1 -1 -1 -1 -0 0 0 0 0 0 0 0 0 1 1 1 1 1 2 1 1 -0 -2 -4 -7 -9 -9 -8 -7 -6 -6 -5 -5 -4 -3 -2 -1 0 1 2 3 2
-4 -1 0 -3 -5 -6 -3 -0 -0 -2 -5 -6 -6 -5 -3 -1 0 1 0 -0 -1 -1 -2 -3 -3 -2 -2 -1 0 0 -3 -6 -7 -5 -1 1 1 -1 -3 -4 -3 -1 -1 -1 -1 -2 -1 -1 -0 0 0 0 0 1 0 0 1 1 1 1 1 1 1 0 -1 -2 -3 -5 -7 -8 -8 -6 -5 -4 -4 -3 -2 -1 -1 -0 -0 -0 0 1 1 1
-5 -2 1 -2 -5 -7 -5 -1 -0 -2 -4 -6 -6 -4 -3 -2 -0 1 1 1 1 0 -0 -0 -1 -2 -2 -1 -0 -1 -4 -6 -6 -4 -1 -0 -0 -2 -4 -4 -3 -2 -1 -1 -2 -2 -2 -1 -1 -0 -0 0 0 0 0 0 0 1 1 1 1 0 -0 -1 -2 -3 -4 -5 -6 -6 -4 -2 -1 -0 -0 1 1 2 2 1 1 -0 -0 -1 -1 -1
-5 -3 -0 -1 -4 -6 -7 -4 -2 -1 -3 -5 -5 -5 -4 -2 -1 0 1 2 1 0 -0 -0 -1 -2 -2 -1 -1 -1 -4 -5 -5 -4 -2 -1 -1 -3 -4 -4 -3 -2 -1 -1 -1 -1 -1 -0 -0 -0 0 0 -0 -0 -0 -0 0 0 0 0 0 0 -0 -1 -2 -3 -4 -4 -4 -2 -1 0 0 0 1 1 1 1 1 1 0 -0 -1 -1 -2 -2
-4 -4 -2 -1 -2 -4 -6 -4 -2 -1 -1 -2 -4 -5 -5 -3 -2 -2 -1 0 0 -0 -0 -0 -1 -1 -1 -1 -1 -1 -3 -4 -5 -4 -2 -1 -1 -2 -4 -4 -2 -1 0 1 0 -0 -0 0 1 1 1 1 1 0 -0 0 0 0 0 0 1 1 0 -0 -1 -2 -2 -3 -2 -2 -2 -2 -2 -2 -2 -1 -1 -0 -0 0 0 0 0 -0 -0 -0
-2 -3 -2 -1 -2 -2 -3 -3 -2 -1 -0 -0 -1 -2 -3 -2 -2 -2 -2 -1 -0 -0 -0 -1 -1 -1 -1 -1 -1 -1 -2 -4 -4 -4 -3 -2 -1 -1 -2 -3 -2 -1 1 1 1 -0 0 1 2 3 3 3 3 2 1 1 1 0 1 1 1 1 1 0 -0 -1 -2 -3 -3 -4 -5 -5 -5 -4 -3 -2 -1 -0 -0 0 1 1 2 2 2 3
-2 -2 -2 -2 -2 -2 -2 -2 -2 -2 -1 -1 -1 -1 -1 -1 -1 -1 -1 -0 -0 -1 -1 -1 -1 -1 -1 -1 -0 -0 -1 -3 -4 -4 -4 -3 -2 -1 -2 -3 -2 -1 1 1 1 0 0 2 3 4 4 4 4 4 3 2 1 1 1 2 2 2 2 1 0 -1 -2 -3 -4 -4 -5 -4 -2 -1 0 0 1 1 1 1 2 2 3 3 4 4
-2 -2 -2 -2 -2 -2 -2 -2 -2 -2 -2 -2 -2 -1 -1 -1 -1 -1 -0 0 -0 -1 -2 -1 -1 -2 -2 -2 -1 -1 -2 -3 -4 -4 -4 -4 -2 -1 -1 -3 -2 -0 2 2 1 0 1 2 3 3 2 2 3 3 3 2 2 2 2 3 3 3 2 1 0 -1 -2 -2 -3 -2 -1 0 2 3 3 3 3 2 2 2 2 2 2 3 3 3
-2 -2 -2 -2 -2 -2 -1 -1 -2 -2 -2 -3 -3 -3 -3 -2 -1 0 1 1 -0 -1 -1 -1 -0 -1 -2 -2 -2 -3 -3 -3 -4 -4 -5 -4 -2 -0 1 -2 -2 -1 2 2 1 1 1 2 2 2 1 1 3 5 5 4 3 2 3 4 4 4 3 2 0 -1 -2 -2 -1 -0 1 2 4 4 4 4 4 3 3 2 2 2 2 1 0 -0
-1 -1 -2 -2 -1 -1 -1 -1 -1 -1 -2 -3 -3 -4 -4 -3 -1 -0 1 1 0 0 -0 -0 -1 -0 -0 -0 -2 -4 -5 -4 -4 -4 -5 -4 -2 -0 1 -1 -1 -1 1 2 2 2 2 3 3 2 0 3 7 10 10 6 4 2 3 5 5 4 3 2 0 -1 -2 -1 -1 0 1 2 3 3 3 3 3 2 2 2 2 1 1 -0 -1 -2
0 -0 -1 -1 -1 -1 -1 -1 -1 -1 -2 -2 -3 -4 -4 -4 -3 -2 -1 -0 -0 0 0 -1 -1 -2 -1 -0 -1 -3 -4 -5 -5 -5 -5 -4 -3 -1 0 -1 -1 -1 -0 1 2 2 2 3 2 1 2 6 11 13 13 8 5 3 4 6 6 5 3 2 0 -1 -1 -1 -0 0 1 1 2 2 2 1 1 0 0 -0 -0 -1 -2 -3 -3 -3
1 -0 -0 -1 -1 -2 -2 -2 -2 -2 -2 -2 -3 -3 -4 -3 -3 -2 -2 -1 -1 -1 -1 -1 -1 -2 -3 -2 -2 -2 -3 -5 -6 -6 -5 -4 -2 -0 -0 -2 -2 -1 -1 -0 0 1 2 2 2 2 3 7 10 11 11 7 4 3 5 6 6 5 3 1 0 -0 -0 -0 -0 -0 -0 -0 -0 -0 -1 -1 -1 -2 -2 -3 -4 -4 -5 -5 -5 -3
0 -0 -1 -1 -2 -2 -2 -2 -2 -2 -2 -2 -2 -3 -3 -3 -2 -2 -2 -2 -1 -1 -1 -1 -1 -2 -3 -3 -2 -2 -3 -4 -6 -6 -6 -4 -2 0 -0 -1 -1 -1 -2 -2 -1 -0 2 2 2 3 4 6 7 8 6 4 3 4 6 7 6 5 3 2 1 0 -0 -1 -1 -1 -2 -2 -3 -3 -3 -4 -4 -4 -5 -6 -7 -8 -8 -8 -6 -4
-0 -0 -1 -1 -2 -2 -2 -2 -2 -2 -1 -1 -1 -2 -2 -2 -2 -2 -2 -1 -1 -1 -1 -1 -1 -2 -3 -4 -4 -4 -5 -5 -5 -6 -7 -5 -2 -0 -0 -1 -1 -1 -2 -3 -3 -2 0 2 3 5 6 8 8 7 4 2 2 5 7 7 6 4 3 2 1 0 -0 -1 -2 -4 -4 -5 -5 -6 -6 -6 -6 -6 -6 -7 -9 -10 -10 -9 -7 -5
-1 -1 -1 -2 -2 -2 -2 -2 -2 -2 -1 -1 -1 -1 -1 -1 -1 -1 -1 -1 -1 -1 -2 -1 -1 -1 -2 -2 -4 -4 -6 -5 -5 -5 -6 -4 -2 -0 -1 -1 -0 -0 -1 -3 -4 -4 -2 1 3 6 8 10 10 8 3 2 3 5 6 6 5 4 3 2 1 0 -1 -2 -4 -5 -6 -6 -6 -6 -5 -5 -5 -5 -6 -7 -8 -10 -10 -9 -7 -6
-1 -1 -2 -1 -1 -1 -1 -2 -2 -2 -1 -1 -1 -1 -0 -0 -0 -0 -0 -1 -1 -1 -2 -2 -2 -1 -0 0 -0 -1 -2 -3 -4 -5 -5 -3 -2 -0 -0 -0 -0 -0 -0 -1 -3 -4 -3 -1 2 4 7 10 9 6 1 1 3 5 5 5 5 4 3 2 2 0 -1 -3 -4 -5 -5 -5 -4 -4 -3 -3 -3 -3 -3 -5 -6 -7 -7 -6 -5 -4
-0 -1 -1 -1 -1 -1 -1 -1 -1 -1 -1 -1 -1 -1 -0 -0 -0 -0 -0 -0 -1 -1 -2 -3 -3 -2 -1 1 2 3 3 1 -1 -3 -4 -3 -2 -1 -0 -0 -1 -1 -0 -1 -1 -2 -1 0 2 4 6 8 6 2 -0 1 2 3 4 4 4 4 3 2 2 0 -1 -2 -2 -2 -2 -1 -0 -0 0 0 -0 -0 -1 -2 -3 -3 -3 -2 -1 -1
0 -0 -0 -1 -0 -0 0 0 0 0 0 -0 -0 -1 -1 -1 -1 -0 -0 -0 -1 -1 -2 -2 -2 -3 -2 -2 0 3 5 4 1 -1 -3 -3 -2 -1 -1 -1 -1 -1 -1 -1 -2 -2 -0 2 3 4 5 5 3 0 -0 1 2 2 3 3 3 3 3 2 1 -0 -1 -0 0 1 2 2 2 3 3 2 2 2 1 1 0 0 1 2 2 1
0 -0 -1 -1 -1 -0 0 1 1 1 1 1 -0 -1 -1 -1 -1 -1 -0 -0 -0 -0 -1 -1 -2 -2 -2 -2 -2 -0 2 2 1 -1 -2 -2 -2 -2 -1 -2 -2 -2 -1 -2 -3 -3 -1 2 4 5 5 4 1 -1 -0 1 2 2 3 3 3 3 2 1 0 -0 0 2 2 3 3 3 4 4 4 4 4 3 3 2 3 3 3 4 4 3
-0 -1 -1 -1 -1 -1 -0 0 0 1 1 0 -0 -1 -1 -1 -1 -1 -0 0 1 0 -0 -1 -1 -1 -2 -2 -1 -1 0 -0 -1 -1 -2 -2 -2 -2 -2 -3 -3 -2 -2 -2 -3 -4 -4 -1 2 5 5 3 1 -1 -1 1 2 3 3 3 3 3 2 1 1 1 2 3 4 4 3 3 4 4 4 4 4 4 4 3 3 3 3 4 4 3
-0 -1 -1 -1 -1 -1 -1 -1 -0 -0 -0 -0 -0 -0 -0 -0 -0 -0 0 1 1 1 1 -0 -0 -1 -1 -1 -0 0 0 -0 -1 -2 -1 -1 -1 -2 -3 -3 -3 -3 -2 -2 -2 -3 -4 -4 -1 2 4 3 0 -1 0 2 2 3 3 3 3 3 2 1 1 2 3 4 4 3 3 2 2 2 1 1 2 3 3 3 3 2 2 2 3 3
-0 -0 -1 -1 -1 -1 -1 -1 -1 -1 -1 -1 -0 -0 0 1 1 1 0 -0 0 1 1 0 0 -0 -0 -0 0 0 0 -0 -1 -1 -1 -1 -2 -2 -4 -3 -2 -1 -0 1 1 1 -1 -3 -3 -2 1 1 0 -0 1 2 3 3 3 2 2 2 2 2 2 3 4 5 4 3 1 1 1 0 -0 0 1 2 2 3 2 2 2 2 3 3
-0 -0 -0 -1 -1 -1 -1 -1 -1 -1 -1 -0 -0 0 0 1 1 1 -0 -1 -0 0 1 1 1 0 0 -0 -0 -0 -0 -0 -0 -1 -1 -2 -3 -3 -3 -2 -0 1 2 3 4 4 4 1 -1 -3 -2 -1 -1 -0 2 3 4 4 3 3 3 2 1 2 2 4 5 6 5 2 -0 0 1 1 0 1 1 2 2 2 2 2 2 3 3 3
-0 -0 -0 0 0 0 -0 -0 -0 -0 -0 -0 -0 0 0 1 1 1 -0 -0 -0 0 0 0 0 0 -0 -0 -0 0 0 0 0 -0 -1 -2 -3 -3 -2 -2 -1 0 0 0 1 1 2 2 0 -1 -2 -3 -2 -1 3 4 5 4 4 4 3 2 1 1 1 2 5 5 3 1 -0 1 1 1 1 1 2 2 1 0 0 0 1 2 2 2
-0 -0 0 1 1 1 1 1 1 0 0 -0 -0 0 0 1 1 1 1 1 1 0 -0 0 0 0 0 0 0 0 1 1 1 1 0 -0 -1 -1 -1 -1 -2 -2 -2 -3 -3 -3 -2 -0 -0 -1 -3 -3 -2 -0 3 4 5 4 4 3 2 1 1 1 0 1 2 2 1 0 1 2 2 2 2 2 2 2 1 -0 -1 -1 -0 0 1 2
0 0 1 1 1 1 2 1 1 1 1 0 0 -0 -0 -0 0 1 1 1 1 1 1 1 1 1 1 0 -0 -0 0 1 1 2 2 2 2 1 0 -0 -1 -0 -0 -1 -1 -1 -1 -0 -0 -1 -3 -3 -1 1 4 5 4 4 3 2 2 1 1 0 -0 -0 -0 -1 -0 1 2 3 3 2 2 2 2 2 2 1 1 1 2 3 3 2
0 1 1 1 1 2 2 2 1 1 1 1 0 0 -0 -0 0 0 1 1 1 1 1 1 1 0 0 0 -0 0 0 1 2 2 3 3 3 2 1 1 1 1 1 1 1 -0 -0 -0 -0 -1 -1 -1 -0 2 4 5 4 3 2 2 2 1 1 -0 -1 -1 -1 -0 1 2 2 2 3 3 2 2 2 2 2 2 2 3 4 5 4 3
1 1 1 1 1 1 2 1 1 1 1 1 1 1 1 1 0 0 1 1 1 1 1 1 0 1 1 1 1 1 1 2 2 3 3 3 3 2 2 1 1 1 1 1 1 -0 -1 -1 -1 -1 -0 -0 1 2 4 4 4 2 2 1 1 1 1 -0 -1 -1 -1 0 1 1 1 1 2 2 2 2 2 2 2 2 3 4 4 4 3 2
1 1 1 1 1 1 1 1 1 1 1 1 2 2 1 1 1 0 0 1 1 0 -0 -0 -0 1 1 2 2 2 2 1 2 2 2 2 2 2 2 1 1 0 0 1 1 -0 -1 -1 -1 -1 -0 -0 1 2 4 3 2 2 1 1 1 1 1 1 1 0 -0 -0 -0 0 0 1 1 0 0 1 1 2 2 2 2 2 3 3 3 2
1 1 1 1 1 1 1 0 1 1 1 2 1 1 1 1 1 0 -0 -0 -0 -1 -1 -1 -1 0 1 2 2 2 2 2 2 2 2 2 2 2 2 1 1 0 -0 0 1 0 -1 -2 -1 -1 0 1 2 2 1 1 1 1 0 0 -0 0 0 1 1 1 0 -0 -0 -0 -0 0 0 0 -0 -0 0 1 1 1 1 1 1 1 2 2
1 1 1 1 1 1 1 1 1 1 1 1 1 0 0 -0 -0 -0 -1 -1 -2 -2 -2 -2 -1 0 1 2 2 2 2 2 2 2 2 1 1 1 1 1 1 0 -0 -0 0 1 -0 -1 -1 -0 0 1 2 1 -0 -0 -1 -1 -1 -1 -0 -0 0 0 1 1 1 0 0 0 0 0 0 -0 -0 -0 0 1 1 1 1 1 1 1 1 1
1 1 1 1 2 2 1 1 1 1 1 0 -0 -1 -1 -1 -1 -1 -1 -2 -2 -3 -2 -1 -0 1 1 1 1 1 1 2 2 2 2 1 1 0 0 0 0 0 0 0 0 1 -0 -1 -1 -1 -0 1 1 0 -1 -1 -1 -1 -1 -1 -1 -0 0 0 1 1 1 1 1 2 2 2 2 1 0 1 1 2 1 1 1 1 1 0 -0 -0
0 1 1 2 2 2 2 1 1 0 -0 -1 -1 -1 -2 -1 -1 -1 -2 -2 -2 -2 -1 -0 1 1 1 1 1 1 1 1 2 2 2 2 1 1 1 0 -0 0 0 1 1 1 0 -0 -0 -1 -1 -1 -1 -1 -1 -1 -1 -1 -2 -1 -1 -0 -0 0 1 1 1 2 2 3 4 4 5 4 3 2 2 2 3 3 2 2 1 0 -0 -1
1 1 1 1 1 1 1 1 1 0 -1 -1 -2 -2 -1 -1 -1 -1 -2 -2 -2 -1 -0 1 1 1 1 1 1 1 1 2 2 3 3 2 2 2 1 1 0 -0 0 1 1 1 1 0 -0 -1 -2 -2 -1 -1 -1 -1 -1 -1 -1 -1 -1 -0 -0 0 1 1 2 2 2 3 3 4 5 5 5 4 3 3 4 3 3 3 2 1 0 -0
Height
5390 5386 5382 5379 5376 5373 5371 5367 5365 5362 5358 5354 5352 5349 5346 5343 5339 5335 5332 5328 5325 5321 5319 5317 5315 5313 5312 5311 5309 5308 5307 5306 5305 5303 5303 5302 5300 5299 5299 5298 5298 5298 5298 5298 5298 5299 5299 5299 5299 5300 5301 5301 5303 5304 5305 5306 5308 5309 5311 5312 5313 5315 5317 5319 5321 5324 5327 5330 5333 5337 5339 5342 5345 5349 5353 5356 5360 5365 5369 5374 5378 5382 5385 5388 5390 5393
5383 5379 5375 5372 5369 5367 5363 5360 5357 5354 5350 5347 5344 5341 5338 5335 5332 5329 5326 5323 5319 5316 5313 5311 5309 5308 5306 5305 5304 5302 5301 5299 5298 5297 5296 5294 5293 5292 5291 5291 5290 5290 5290 5290 5290 5291 5291 5291 5291 5292 5292 5293 5295 5296 5297 5298 5300 5302 5303 5305 5306 5308 5309 5311 5313 5316 5319 5323 5326 5329 5332 5335 5338 5341 5344 5348 5353 5357 5362 5366 5370 5374 5377 5380 5383 5386
5377 5373 5369 5365 5362 5359 5356 5353 5349 5346 5343 5339 5336 5334 5331 5328 5325 5323 5320 5317 5314 5311 5308 5306 5304 5302 5301 5299 5298 5296 5294 5293 5291 5290 5288 5287 5286 5285 5284 5283 5283 5282 5282 5282 5283 5283 5283 5283 5283 5283 5284 5286 5287 5288 5289 5290 5292 5294 5296 5297 5299 5300 5301 5303 5305 5308 5312 5314 5318 5321 5325 5328 5330 5333 5337 5341 5345 5349 5353 5358 5362 5366 5370 5373 5376 5379
5370 5367 5363 5358 5355 5352 5349 5346 5342 5339 5336 5332 5329 5327 5324 5322 5319 5316 5313 5311 5308 5305 5303 5301 5299 5297 5295 5293 5292 5290 5288 5286 5284 5283 5281 5280 5278 5278 5276 5275 5275 5274 5274 5274 5274 5274 5274 5274 5274 5275 5276 5277 5278 5279 5281 5283 5284 5286 5288 5289 5291 5292 5293 5295 5297 5300 5303 5307 5310 5314 5317 5321 5323 5327 5330 5333 5337 5341 5345 5349 5354 5359 5363 5367 5370 5373
5363 5360 5356 5352 5348 5345 5342 5339 5335 5332 5328 5326 5323 5321 5319 5316 5313 5310 5308 5305 5303 5300 5298 5296 5294 5292 5290 5288 5286 5284 5282 5280 5278 5276 5274 5273 5271 5270 5269 5268 5267 5267 5267 5267 5266 5266 5266 5266 5266 5267 5268 5269 5270 5272 5273 5274 5276 5277 5278 5280 5282 5283 5284 5285 5288 5290 5294 5298 5302 5306 5309 5313 5317 5320 5323 5326 5329 5333 5338 5342 5347 5352 5356 5361 5364 5368
5355 5353 5349 5346 5342 5338 5335 5332 5328 5325 5321 5318 5317 5316 5314 5311 5308 5305 5302 5300 5297 5295 5293 5291 5289 5287 5285 5282 5280 5278 5276 5273 5271 5269 5267 5266 5264 5263 5262 5261 5260 5260 5259 5259 5259 5258 5259 5259 5259 5259 5260 5261 5262 5264 5265 5266 5267 5268 5269 5271 5273 5273 5275 5276 5278 5281 5284 5288 5292 5297 5300 5305 5309 5312 5315 5318 5322 5326 5330 5335 5340 5344 5349 5354 5358 5362
5348 5346 5343 5340 5335 5332 5328 5325 5322 5318 5315 5312 5310 5309 5308 5305 5303 5299 5297 5294 5292 5290 5288 5286 5284 5282 5280 5277 5274 5272 5269 5267 5265 5263 5261 5259 5258 5256 5255 5255 5254 5253 5252 5252 5251 5251 5251 5251 5251 5251 5252 5253 5254 5255 5256 5257 5257 5258 5260 5262 5263 5263 5265 5266 5268 5271 5275 5278 5283 5288 5292 5297 5301 5304 5308 5311 5315 5319 5323 5328 5333 5337 5342 5347 5351 5356
5341 5338 5336 5333 5329 5324 5321 5319 5317 5313 5309 5305 5303 5301 5300 5299 5297 5294 5292 5290 5288 5285 5282 5280 5278 5277 5275 5272 5269 5266 5263 5261 5258 5256 5254 5253 5251 5250 5249 5248 5247 5246 5245 5244 5244 5243 5243 5243 5243 5244 5244 5245 5246 5247 5247 5248 5248 5249 5251 5251 5252 5253 5256 5258 5260 5263 5266 5270 5275 5280 5285 5289 5293 5297 5301 5305 5308 5313 5317 5321 5326 5330 5335 5340 5344 5349
5335 5332 5329 5326 5323 5318 5314 5312 5310 5308 5304 5300 5297 5295 5293 5291 5290 5288 5287 5285 5283 5281 5278 5275 5273 5271 5270 5268 5264 5260 5257 5255 5252 5250 5248 5247 5245 5244 5243 5242 5241 5240 5239 5238 5237 5236 5236 5235 5235 5236 5236 5237 5238 5238 5239 5240 5241 5241 5241 5241 5243 5245 5248 5251 5253 5255 5259 5263 5268 5273 5278 5282 5286 5290 5294 5298 5303 5307 5311 5315 5320 5324 5329 5333 5338 5342
5329 5326 5322 5318 5316 5313 5309 5305 5303 5302 5299 5295 5292 5290 5288 5285 5283 5281 5281 5280 5279 5277 5274 5270 5268 5265 5264 5262 5259 5256 5252 5249 5247 5245 5243 5241 5239 5238 5236 5235 5234 5233 5232 5231 5230 5229 5229 5228 5228 5228 5228 5229 5229 5230 5231 5232 5233 5232 5232 5233 5236 5238 5241 5243 5245 5248 5251 5255 5260 5265 5270 5274 5279 5283 5288 5293 5297 5301 5306 5310 5314 5318 5323 5327 5331 5335
5323 5320 5316 5312 5309 5307 5304 5301 5298 5296 5293 5290 5288 5286 5284 5281 5278 5275 5273 5273 5273 5272 5269 5267 5264 5261 5258 5256 5253 5250 5247 5243 5241 5240 5238 5237 5234 5232 5230 5228 5227 5226 5225 5224 5224 5223 5223 5222 5221 5221 5221 5221 5222 5223 5223 5224 5224 5224 5225 5226 5228 5231 5233 5235 5237 5240 5243 5248 5253 5258 5263 5267 5272 5277 5282 5286 5291 5296 5300 5304 5308 5313 5317 5321 5326 5330
5318 5314 5310 5307 5304 5301 5298 5296 5293 5290 5288 5286 5283 5280 5277 5276 5273 5270 5268 5266 5266 5266 5264 5262 5260 5258 5254 5250 5247 5243 5241 5238 5236 5234 5233 5232 5230 5227 5224 5222 5221 5220 5219 5218 5218 5218 5217 5216 5214 5214 5214 5214 5215 5216 5216 5217 5217 5217 5218 5219 5221 5223 5224 5227 5229 5233 5236 5241 5245 5250 5255 5260 5266 5271 5276 5280 5285 5290 5294 5299 5303 5308 5312 5316 5320 5324
5311 5308 5305 5302 5299 5296 5293 5289 5287 5284 5283 5281 5278 5274 5272 5270 5268 5266 5263 5261 5260 5259 5258 5255 5254 5253 5250 5246 5242 5237 5234 5232 5230 5229 5228 5227 5225 5222 5219 5217 5215 5214 5213 5213 5212 5212 5211 5209 5208 5208 5208 5208 5209 5209 5209 5210 5210 5211 5211 5212 5213 5215 5217 5220 5223 5226 5230 5233 5238 5243 5248 5253 5259 5264 5269 5275 5280 5284 5289 5294 5298 5303 5307 5311 5315 5319
5305 5303 5299 5297 5294 5291 5288 5284 5282 5279 5277 5275 5272 5269 5267 5265 5263 5261 5258 5256 5255 5254 5252 5249 5248 5247 5246 5242 5237 5233 5228 5226 5224 5224 5223 5222 5220 5217 5214 5212 5210 5210 5209 5208 5207 5206 5205 5204 5203 5203 5203 5203 5203 5203 5203 5203 5204 5204 5204 5205 5206 5208 5210 5213 5216 5219 5222 5227 5232 5237 5242 5248 5253 5259 5264 5270 5275 5279 5284 5289 5294 5298 5303 5307 5311 5315
5300 5297 5294 5291 5288 5286 5283 5280 5277 5274 5272 5270 5268 5264 5262 5260 5258 5256 5254 5251 5250 5249 5247 5244 5243 5242 5241 5238 5233 5228 5223 5221 5219 5219 5218 5218 5216 5213 5209 5207 5206 5206 5205 5203 5202 5201 5200 5199 5198 5198 5198 5198 5198 5198 5198 5198 5198 5198 5199 5200 5201 5202 5204 5207 5210 5213 5216 5221 5226 5232 5237 5243 5248 5254 5260 5265 5270 5275 5280 5285 5289 5294 5298 5303 5307 5311
5294 5292 5288 5285 5283 5281 5279 5276 5272 5269 5267 5265 5263 5260 5258 5255 5253 5252 5249 5247 5244 5243 5241 5238 5236 5235 5236 5234 5230 5225 5219 5216 5214 5214 5214 5213 5212 5208 5205 5203 5202 5202 5201 5199 5198 5197 5196 5195 5194 5194 5194 5194 5194 5193 5193 5193 5193 5193 5194 5195 5196 5197 5198 5201 5204 5207 5211 5216 5221 5227 5233 5238 5244 5250 5255 5260 5266 5271 5276 5280 5285 5289 5294 5298 5303 5307
5290 5287 5283 5280 5278 5276 5274 5272 5268 5265 5263 5260 5258 5256 5254 5251 5249 5247 5244 5242 5239 5237 5235 5233 5230 5229 5228 5228 5227 5222 5216 5212 5210 5210 5210 5209 5207 5205 5202 5199 5198 5198 5198 5196 5195 5193 5193 5192 5192 5191 5191 5190 5190 5189 5189 5189 5189 5189 5190 5190 5191 5193 5194 5197 5199 5202 5206 5211 5217 5222 5228 5234 5240 5245 5251 5256 5261 5266 5271 5276 5281 5285 5290 5295 5299 5303
5285 5283 5279 5275 5273 5271 5269 5267 5264 5261 5258 5255 5253 5251 5249 5247 5245 5242 5239 5237 5234 5231 5229 5228 5226 5224 5222 5221 5220 5218 5213 5209 5207 5206 5206 5205 5204 5201 5198 5197 5196 5195 5195 5193 5192 5191 5190 5190 5189 5188 5188 5187 5187 5186 5186 5185 5185 5185 5186 5187 5188 5189 5191 5193 5196 5199 5203 5208 5213 5219 5225 5231 5237 5242 5248 5253 5258 5263 5268 5273 5277 5282 5286 5290 5295 5299
5280 5278 5275 5271 5268 5266 5265 5263 5259 5256 5253 5250 5248 5246 5243 5242 5240 5238 5235 5233 5230 5228 5226 5223 5221 5219 5217 5216 5215 5213 5209 5205 5204 5203 5203 5202 5201 5198 5196 5194 5193 5193 5192 5191 5190 5189 5188 5188 5187 5186 5185 5185 5184 5184 5183 5183 5182 5182 5183 5183 5185 5186 5188 5190 5193 5197 5201 5206 5211 5218 5223 5229 5235 5240 5245 5250 5255 5261 5265 5270 5274 5278 5283 5286 5290 5294
5274 5273 5271 5267 5264 5261 5259 5258 5255 5251 5248 5245 5243 5240 5238 5237 5235 5233 5231 5229 5227 5224 5222 5219 5217 5215 5213 5212 5210 5208 5205 5203 5201 5200 5200 5199 5198 5196 5194 5193 5192 5192 5191 5190 5189 5188 5187 5186 5185 5184 5183 5183 5182 5181 5181 5180 5180 5180 5181 5181 5182 5183 5185 5188 5191 5195 5199 5205 5211 5217 5223 5229 5234 5239 5244 5249 5254 5258 5263 5268 5272 5276 5279 5283 5287 5291
5270 5268 5267 5264 5260 5257 5254 5252 5250 5247 5244 5241 5238 5235 5233 5232 5230 5229 5228 5226 5224 5221 5218 5216 5214 5212 5209 5208 5206 5204 5202 5200 5198 5198 5197 5197 5195 5194 5193 5192 5191 5191 5190 5189 5188 5187 5186 5185 5184 5183 5182 5181 5180 5180 5179 5179 5179 5178 5179 5179 5180 5182 5184 5186 5189 5193 5198 5204 5210 5216 5222 5227 5232 5237 5242 5247 5251 5256 5260 5265 5269 5273 5277 5280 5284 5288
5266 5265 5263 5260 5257 5253 5249 5247 5245 5243 5240 5237 5234 5231 5229 5228 5227 5226 5225 5222 5219 5217 5215 5213 5211 5209 5207 5205 5203 5201 5199 5197 5196 5195 5195 5195 5194 5193 5192 5191 5191 5190 5189 5188 5187 5186 5185 5184 5183 5182 5181 5181 5180 5179 5178 5178 5178 5177 5177 5178 5179 5181 5183 5186 5189 5193 5198 5204 5209 5215 5220 5225 5230 5235 5239 5244 5249 5253 5258 5262 5266 5270 5274 5278 5282 5285
5263 5261 5258 5256 5253 5249 5246 5243 5241 5239 5237 5233 5231 5228 5226 5226 5224 5223 5220 5218 5215 5213 5212 5210 5208 5206 5204 5202 5200 5199 5197 5195 5193 5192 5193 5193 5192 5191 5191 5190 5189 5188 5188 5187 5187 5186 5185 5183 5183 5182 5181 5180 5179 5178 5178 5177 5177 5176 5177 5178 5179 5181 5183 5186 5189 5193 5198 5203 5208 5213 5218 5223 5228 5233 5237 5242 5246 5250 5254 5258 5263 5267 5271 5275 5278 5283
5261 5258 5255 5252 5248 5245 5242 5240 5238 5236 5233 5231 5228 5226 5224 5223 5221 5219 5217 5214 5212 5211 5209 5207 5205 5203 5202 5200 5198 5197 5195 5193 5191 5190 5190 5190 5190 5190 5189 5188 5188 5187 5187 5186 5185 5184 5184 5183 5183 5182 5181 5180 5179 5178 5178 5177 5176 5176 5177 5178 5179 5181 5183 5186 5189 5193 5198 5203 5208 5212 5218 5223 5227 5232 5236 5240 5244 5248 5252 5256 5259 5263 5267 5271 5275 5279
5257 5254 5251 5248 5245 5243 5240 5238 5236 5233 5230 5227 5225 5223 5222 5220 5218 5216 5214 5212 5210 5208 5206 5205 5203 5201 5199 5198 5196 5195 5193 5191 5190 5189 5189 5189 5189 5189 5188 5187 5186 5186 5186 5186 5185 5184 5183 5183 5183 5182 5181 5180 5179 5178 5178 5177 5177 5176 5177 5178 5179 5181 5184 5187 5190 5194 5198 5203 5208 5212 5217 5222 5227 5231 5235 5239 5243 5246 5249 5253 5257 5260 5264 5267 5271 5275
5254 5251 5248 5245 5243 5241 5238 5236 5233 5230 5227 5225 5222 5220 5219 5217 5216 5214 5212 5210 5208 5206 5204 5203 5201 5200 5198 5196 5194 5193 5191 5190 5189 5188 5188 5188 5188 5188 5188 5187 5186 5186 5185 5185 5185 5184 5183 5183 5182 5182 5180 5180 5179 5179 5179 5178 5177 5177 5178 5179 5180 5183 5185 5188 5191 5195 5199 5203 5208 5212 5217 5222 5226 5230 5233 5237 5240 5243 5247 5250 5254 5257 5260 5264 5267 5271
5252 5249 5246 5243 5241 5238 5236 5233 5231 5228 5226 5224 5221 5218 5217 5215 5213 5212 5210 5208 5206 5204 5202 5201 5199 5198 5196 5194 5192 5191 5189 5189 5188 5188 5187 5187 5187 5187 5187 5187 5186 5186 5185 5185 5185 5184 5183 5183 5183 5182 5181 5180 5181 5181 5181 5180 5178 5178 5179 5180 5182 5184 5186 5189 5193 5196 5200 5204 5208 5213 5217 5220 5224 5228 5231 5234 5238 5241 5244 5247 5251 5254 5257 5261 5264 5268
5250 5248 5244 5242 5239 5237 5234 5232 5230 5228 5225 5223 5220 5218 5215 5213 5211 5209 5208 5206 5204 5202 5200 5199 5197 5196 5194 5193 5191 5189 5188 5187 5186 5186 5186 5186 5186 5187 5186 5186 5186 5185 5185 5185 5185 5184 5184 5183 5183 5182 5182 5182 5183 5183 5183 5181 5180 5180 5181 5182 5184 5186 5188 5191 5193 5197 5201 5204 5208 5212 5216 5219 5223 5226 5229 5232 5235 5238 5242 5244 5248 5251 5254 5258 5261 5265
5248 5246 5243 5240 5238 5236 5233 5231 5229 5227 5224 5222 5219 5217 5214 5212 5209 5208 5206 5204 5202 5200 5199 5197 5196 5194 5192 5191 5190 5188 5187 5185 5185 5185 5185 5185 5186 5186 5186 5185 5185 5185 5185 5184 5184 5184 5184 5184 5183 5183 5183 5184 5184 5184 5184 5183 5182 5182 5183 5184 5186 5187 5189 5192 5194 5198 5201 5204 5208 5211 5214 5218 5221 5223 5227 5229 5233 5236 5239 5242 5245 5248 5251 5254 5258 5262
5247 5245 5242 5240 5237 5235 5233 5230 5228 5226 5224 5221 5219 5216 5214 5211 5209 5207 5205 5203 5201 5200 5198 5196 5194 5193 5191 5189 5188 5187 5186 5185 5184 5184 5184 5185 5185 5186 5185 5185 5185 5185 5185 5185 5185 5184 5184 5184 5184 5184 5185 5185 5185 5185 5185 5184 5183 5184 5185 5186 5187 5188 5190 5192 5195 5198 5201 5204 5207 5210 5213 5216 5218 5221 5224 5227 5230 5233 5236 5239 5242 5245 5248 5252 5256 5259
5247 5244 5242 5239 5236 5234 5232 5229 5227 5225 5223 5221 5218 5216 5213 5211 5209 5207 5205 5203 5201 5199 5198 5196 5194 5193 5191 5189 5188 5187 5186 5185 5184 5184 5184 5185 5185 5186 5186 5185 5185 5185 5185 5186 5186 5186 5184 5185 5185 5186 5187 5187 5187 5187 5186 5185 5185 5186 5186 5187 5188 5189 5190 5193 5195 5197 5200 5203 5206 5208 5211 5214 5216 5219 5222 5225 5228 5231 5234 5237 5240 5243 5246 5249 5253 5256
5245 5243 5240 5238 5235 5233 5231 5228 5226 5224 5222 5220 5218 5215 5213 5211 5209 5207 5205 5203 5201 5200 5198 5196 5194 5193 5191 5190 5188 5187 5186 5185 5184 5184 5184 5185 5185 5186 5186 5186 5186 5186 5186 5186 5187 5187 5186 5186 5186 5187 5188 5188 5189 5188 5187 5187 5187 5187 5188 5188 5188 5189 5190 5192 5194 5196 5199 5201 5203 5206 5209 5212 5214 5217 5220 5223 5226 5229 5232 5235 5237 5240 5243 5247 5250 5253
5244 5241 5239 5236 5234 5232 5230 5227 5225 5223 5221 5219 5217 5215 5213 5211 5209 5207 5205 5203 5201 5200 5198 5196 5195 5193 5192 5190 5189 5188 5186 5185 5185 5184 5185 5185 5186 5186 5186 5186 5186 5186 5186 5186 5186 5187 5187 5187 5188 5188 5188 5189 5189 5189 5188 5188 5188 5188 5188 5189 5189 5190 5191 5192 5193 5195 5197 5199 5202 5204 5207 5210 5213 5216 5218 5221 5224 5227 5229 5232 5235 5238 5241 5244 5247 5250
5242 5240 5238 5235 5233 5231 5228 5226 5224 5222 5220 5218 5216 5214 5212 5210 5208 5207 5205 5203 5201 5200 5198 5197 5195 5193 5192 5191 5190 5189 5188 5186 5185 5185 5185 5186 5186 5186 5186 5186 5186 5186 5186 5186 5186 5187 5187 5188 5188 5188 5189 5189 5189 5189 5188 5188 5189 5189 5189 5189 5190 5190 5191 5192 5193 5194 5196 5198 5200 5203 5205 5208 5211 5213 5216 5219 5221 5224 5226 5229 5232 5234 5237 5240 5243 5246
5241 5238 5236 5234 5232 5229 5227 5225 5223 5221 5219 5217 5215 5213 5212 5210 5208 5206 5204 5203 5201 5200 5198 5197 5195 5194 5193 5192 5191 5190 5189 5188 5186 5185 5185 5186 5186 5186 5186 5185 5185 5186 5186 5186 5187 5187 5188 5188 5188 5189 5189 5190 5190 5189 5188 5189 5189 5189 5189 5189 5190 5190 5191 5191 5192 5193 5195 5197 5199 5201 5203 5206 5208 5211 5213 5216 5218 5221 5223 5226 5228 5231 5233 5236 5239 5241
5239 5237 5235 5232 5230 5228 5225 5223 5222 5220 5218 5216 5215 5213 5211 5209 5208 5206 5204 5203 5201 5200 5198 5197 5195 5194 5193 5192 5191 5190 5189 5188 5187 5186 5185 5185 5186 5186 5186 5185 5185 5186 5186 5187 5187 5187 5188 5188 5189 5189 5190 5190 5190 5189 5189 5189 5189 5189 5189 5190 5190 5190 5191 5191 5192 5193 5194 5196 5198 5200 5202 5204 5207 5209 5212 5215 5217 5219 5221 5223 5226 5228 5229 5232 5234 5237
5238 5235 5233 5230 5228 5226 5224 5222 5220 5218 5217 5215 5214 5212 5211 5209 5207 5206 5204 5203 5201 5200 5198 5197 5195 5194 5193 5192 5191 5190 5189 5188 5187 5186 5185 5185 5186 5186 5186 5185 5185 5186 5187 5187 5187 5187 5187 5188 5189 5189 5190 5190 5189 5189 5189 5189 5189 5189 5190 5190 5190 5190 5191 5191 5192 5193 5194 5196 5198 5200 5202 5204 5206 5208 5211 5213 5216 5218 5219 5221 5223 5225 5226 5229 5231 5233
5235 5233 5231 5228 5226 5224 5222 5220 5219 5217 5216 5214 5213 5211 5210 5208 5207 5205 5204 5203 5201 5200 5198 5197 5196 5194 5193 5192 5191 5189 5188 5188 5187 5186 5185 5185 5186 5186 5186 5185 5185 5186 5186 5187 5187 5187 5188 5188 5189 5189 5190 5189 5189 5189 5189 5189 5189 5189 5189 5190 5190 5190 5191 5191 5192 5193 5195 5197 5198 5200 5202 5203 5205 5207 5208 5210 5212 5214 5216 5219 5222 5223 5225 5229 5231 5232
5233 5231 5228 5226 5224 5222 5220 5218 5217 5216 5214 5213 5212 5210 5209 5208 5207 5205 5204 5203 5201 5200 5199 5198 5196 5195 5193 5192 5191 5190 5189 5188 5187 5187 5186 5186 5186 5186 5186 5186 5186 5186 5186 5187 5187 5188 5189 5189 5189 5189 5189 5189 5189 5189 5189 5189 5189 5190 5189 5190 5190 5190 5191 5192 5193 5194 5195 5198 5199 5200 5201 5202 5203 5204 5206 5208 5210 5213 5215 5218 5221 5223 5225 5228 5231 5233
5232 5229 5227 5225 5223 5221 5219 5217 5216 5215 5213 5212 5211 5210 5209 5208 5207 5205 5204 5203 5201 5200 5198 5198 5196 5195 5194 5193 5191 5190 5189 5188 5188 5188 5187 5187 5186 5186 5186 5186 5186 5187 5187 5188 5188 5189 5189 5189 5188 5188 5188 5188 5188 5188 5189 5189 5190 5190 5190 5190 5190 5190 5191 5192 5193 5194 5197 5199 5199 5199 5199 5200 5202 5204 5206 5208 5210 5213 5215 5218 5221 5223 5226 5228 5230 5233
5230 5228 5226 5224 5222 5220 5218 5217 5215 5214 5213 5212 5210 5209 5208 5208 5207 5206 5204 5203 5201 5200 5199 5198 5197 5195 5194 5193 5192 5191 5190 5189 5189 5188 5188 5187 5187 5187 5187 5187 5188 5188 5188 5188 5188 5188 5188 5188 5188 5188 5188 5187 5188 5188 5189 5189 5190 5190 5190 5190 5190 5190 5191 5192 5193 5195 5198 5199 5199 5199 5200 5201 5203 5205 5207 5209 5211 5213 5215 5218 5221 5224 5227 5229 5231 5233
5229 5227 5225 5223 5221 5219 5218 5216 5215 5213 5213 5211 5210 5209 5208 5208 5207 5205 5204 5203 5201 5200 5199 5198 5197 5196 5195 5194 5193 5192 5191 5190 5190 5189 5188 5188 5188 5188 5188 5188 5188 5188 5188 5187 5187 5186 5186 5187 5187 5187 5187 5187 5187 5188 5189 5189 5190 5190 5190 5190 5190 5191 5191 5192 5193 5194 5197 5198 5198 5199 5201 5202 5204 5206 5208 5210 5212 5214 5216 5218 5220 5223 5227 5231 5233 5235
5228 5227 5225 5223 5221 5219 5218 5216 5215 5214 5213 5211 5210 5209 5208 5208 5207 5205 5204 5203 5202 5201 5200 5199 5198 5197 5195 5194 5193 5193 5192 5191 5191 5190 5189 5189 5189 5189 5189 5188 5188 5187 5187 5187 5186 5186 5186 5186 5187 5187 5187 5187 5187 5188 5189 5189 5190 5190 5190 5191 5191 5191 5192 5192 5193 5195 5196 5197 5198 5200 5202 5204 5206 5208 5210 5212 5214 5216 5218 5219 5222 5224 5228 5232 5235 5237
5228 5226 5224 5223 5221 5219 5218 5216 5215 5214 5213 5212 5210 5209 5208 5207 5206 5205 5204 5203 5202 5201 5200 5199 5198 5197 5196 5195 5194 5193 5193 5192 5192 5191 5190 5190 5190 5189 5189 5188 5188 5188 5188 5187 5187 5187 5186 5186 5187 5187 5187 5187 5187 5188 5189 5190 5190 5190 5191 5191 5192 5193 5193 5194 5195 5196 5197 5198 5200 5202 5204 5206 5208 5210 5212 5214 5216 5218 5220 5222 5224 5227 5229 5233 5236 5238
5228 5226 5224 5223 5221 5220 5218 5217 5216 5214 5213 5212 5211 5209 5208 5208 5207 5206 5204 5203 5202 5201 5201 5200 5199 5198 5197 5196 5195 5194 5193 5193 5192 5191 5191 5190 5190 5189 5189 5188 5188 5188 5188 5188 5188 5187 5187 5187 5187 5187 5187 5187 5188 5188 5189 5190 5190 5191 5191 5192 5193 5194 5195 5196 5197 5198 5199 5200 5202 5204 5206 5208 5210 5212 5214 5216 5218 5220 5222 5224 5227 5230 5232 5235 5238 5240
5228 5226 5225 5223 5221 5220 5219 5218 5216 5215 5214 5213 5211 5210 5209 5208 5207 5206 5205 5204 5203 5202 5201 5200 5199 5198 5197 5196 5195 5194 5193 5193 5192 5191 5191 5191 5190 5189 5189 5188 5188 5188 5188 5188 5188 5188 5188 5187 5187 5187 5188 5188 5188 5188 5189 5190 5191 5192 5192 5193 5194 5195 5196 5198 5199 5200 5201 5203 5204 5206 5208 5210 5212 5214 5216 5218 5220 5222 5224 5227 5229 5232 5235 5237 5240 5242
5228 5227 5225 5223 5222 5221 5220 5218 5217 5216 5214 5213 5212 5210 5209 5208 5207 5206 5205 5204 5203 5202 5201 5200 5199 5198 5198 5197 5196 5194 5193 5193 5192 5191 5190 5190 5190 5189 5189 5189 5188 5188 5188 5188 5188 5188 5188 5188 5188 5188 5188 5188 5189 5189 5190 5190 5191 5192 5193 5194 5196 5197 5198 5200 5201 5203 5204 5205 5207 5208 5211 5213 5214 5216 5218 5220 5222 5224 5227 5229 5231 5234 5237 5239 5242 5244
5228 5227 5226 5224 5223 5222 5221 5219 5218 5216 5215 5213 5212 5211 5210 5209 5208 5207 5206 5205 5204 5203 5202 5200 5200 5199 5198 5197 5196 5195 5194 5193 5192 5191 5190 5190 5189 5189 5189 5189 5189 5188 5188 5188 5188 5188 5188 5188 5188 5188 5189 5189 5190 5190 5190 5191 5192 5193 5194 5196 5197 5199 5200 5202 5203 5205 5207 5208 5209 5211 5213 5214 5216 5218 5220 5222 5223 5226 5228 5230 5233 5235 5238 5240 5242 5244
5229 5228 5226 5225 5224 5223 5221 5220 5218 5217 5216 5214 5213 5212 5211 5210 5209 5208 5206 5205 5204 5203 5203 5202 5201 5200 5198 5197 5196 5195 5194 5193 5192 5191 5190 5189 5189 5189 5189 5189 5189 5189 5189 5189 5189 5189 5189 5189 5188 5189 5189 5190 5190 5191 5191 5192 5193 5194 5196 5197 5199 5200 5202 5204 5205 5207 5209 5210 5212 5213 5215 5217 5218 5220 5222 5223 5225 5227 5229 5231 5233 5236 5239 5241 5243 5245
5229 5228 5227 5226 5225 5223 5222 5221 5219 5218 5216 5215 5214 5213 5212 5211 5210 5208 5207 5206 5205 5204 5203 5203 5202 5201 5199 5198 5197 5196 5195 5193 5192 5191 5190 5190 5189 5188 5188 5188 5188 5189 5189 5189 5190 5190 5190 5189 5189 5189 5190 5190 5191 5192 5193 5193 5195 5196 5197 5199 5200 5202 5203 5205 5207 5209 5210 5212 5213 5215 5216 5218 5220 5222 5223 5224 5226 5228 5230 5232 5234 5237 5240 5242 5244 5246
5230 5229 5228 5227 5226 5224 5223 5221 5220 5218 5217 5216 5215 5213 5213 5211 5210 5209 5208 5207 5206 5206 5205 5204 5203 5202 5201 5199 5198 5197 5196 5195 5193 5192 5191 5190 5189 5189 5188 5188 5188 5189 5189 5190 5190 5191 5191 5191 5190 5190 5191 5191 5192 5193 5194 5195 5197 5198 5199 5200 5202 5203 5205 5207 5208 5210 5211 5213 5214 5216 5218 5219 5221 5223 5225 5226 5228 5229 5231 5233 5236 5238 5241 5243 5245 5248